Temp
67 66 62 58 51 56 47 41 44 49 57 67 69 70 72 71 72 72 72 76 77 74 77 78 80 79 79 77 77 77 77 78
64 64 63 56 60 50 45 37 36 46 48 53 63 66 69 69 70 71 71 73 74 74 74 74 77 79 80 79 78 77 78 79
56 49 48 51 49 48 46 45 39 39 47 59 61 63 66 68 73 73 71 74 74 72 73 73 74 79 80 79 79 77 78 79
43 55 60 55 48 44 39 40 42 43 47 66 65 67 70 68 73 73 73 77 72 74 75 73 73 75 80 80 79 79 79 79
40 44 51 49 52 45 43 39 40 41 46 67 69 68 69 67 68 70 70 70 73 77 75 76 77 74 78 81 79 80 79 79
31 36 44 44 50 52 42 34 37 40 49 56 61 65 67 67 67 70 72 72 69 71 73 70 71 75 75 81 82 81 80 79
39 47 48 47 48 51 45 44 38 46 47 54 58 62 64 66 67 67 68 68 69 68 69 70 70 70 73 79 80 81 80 79
38 47 46 44 49 50 51 51 50 50 47 56 59 63 62 63 64 64 65 68 67 68 70 70 72 71 72 72 73 80 80 79
26 41 42 36 44 48 49 51 47 41 46 53 53 57 56 59 62 62 64 64 64 66 67 67 69 70 69 69 71 72 78 80
27 33 25 41 50 53 50 49 50 49 51 53 53 56 58 60 60 61 63 63 64 65 66 68 68 69 69 70 71 70 72 80
27 27 36 44 49 49 45 42 50 47 50 52 55 57 54 59 61 62 62 64 64 66 65 65 65 65 67 70 71 70 70 70
29 24 25 38 47 53 50 35 49 49 47 47 50 43 46 56 60 62 63 64 63 64 65 65 62 63 65 66 67 68 69 68
29 28 34 41 45 50 34 35 46 48 47 46 42 47 52 57 57 61 64 64 64 64 63 63 64 62 61 62 63 64 66 67
28 24 25 43 46 37 41 43 44 45 46 46 47 50 54 55 55 59 60 62 63 61 60 62 63 62 59 59 61 64 65 65
34 36 41 44 43 46 45 39 41 44 48 50 47 49 50 52 52 54 58 59 61 60 59 59 60 58 57 60 61 61 62 64
32 39 40 43 44 42 45 45 44 46 48 50 46 48 48 50 52 51 54 57 59 57 57 57 57 58 57 59 60 59 61 62
35 37 41 43 43 43 45 46 46 48 48 48 49 48 48 47 48 50 51 55 56 53 55 55 56 55 57 59 59 59 60 61
28 36 39 40 44 46 44 44 45 44 45 48 49 48 50 49 49 50 50 55 56 56 56 53 52 54 55 57 58 58 58 61
36 41 40 42 44 46 44 45 46 45 46 45 48 50 50 49 50 51 53 53 50 53 50 50 50 50 54 55 57 55 55 58
MSLP
1008.03 1008.18 1007.94 1007.79 1008.64 1009.10 1010.57 1011.46 1011.22 1010.03 1008.17 1005.90 1005.25 1005.14 1004.93 1005.43 1006.15 1006.43 1006.87 1007.27 1007.75 1008.53 1009.00 1009.67 1010.44 1010.81 1011.34 1012.18 1013.03 1013.79 1014.64 1015.49
1009.36 1008.75 1009.18 1010.01 1010.13 1010.44 1011.55 1012.47 1012.41 1011.05 1009.34 1007.53 1006.80 1006.20 1005.12 1005.75 1005.95 1006.44 1006.53 1006.53 1006.91 1007.21 1007.95 1008.81 1009.33 1010.46 1011.55 1011.68 1012.04 1012.89 1013.99 1014.86
1011.21 1012.08 1012.38 1011.78 1012.53 1012.80 1013.06 1012.81 1012.91 1011.93 1010.56 1008.83 1007.99 1007.21 1006.47 1005.79 1004.97 1005.48 1006.43 1006.59 1006.17 1006.71 1007.47 1007.69 1008.48 1008.90 1009.97 1011.27 1011.76 1012.23 1013.11 1014.07
1013.94 1013.25 1012.86 1013.39 1014.91 1015.26 1015.62 1014.77 1013.96 1012.74 1011.23 1009.49 1008.91 1007.89 1006.71 1005.41 1003.94 1005.13 1006.12 1006.39 1007.44 1006.27 1006.07 1006.64 1007.41 1008.07 1008.61 1010.00 1010.93 1011.38 1012.23 1013.27
1015.28 1014.81 1014.78 1015.31 1015.68 1016.32 1016.43 1016.23 1015.11 1014.01 1012.15 1010.37 1009.59 1008.90 1008.33 1007.35 1006.26 1005.53 1005.73 1006.23 1006.73 1006.81 1007.33 1007.61 1007.23 1007.64 1008.27 1008.82 1009.74 1010.57 1011.43 1012.30
1018.71 1018.43 1017.66 1016.90 1016.65 1016.56 1017.05 1017.11 1016.63 1015.60 1013.84 1012.38 1011.25 1010.17 1009.36 1008.90 1006.99 1005.04 1005.43 1006.28 1007.36 1007.23 1007.29 1008.33 1008.57 1008.46 1008.58 1008.24 1009.14 1010.12 1010.69 1011.71
1019.21 1018.88 1018.28 1017.75 1017.07 1016.95 1017.00 1017.07 1017.03 1016.16 1015.32 1014.07 1012.87 1011.60 1010.50 1010.04 1008.65 1007.71 1007.78 1008.08 1008.49 1008.31 1008.25 1008.15 1008.56 1008.79 1008.89 1008.63 1008.67 1009.42 1010.09 1010.78
1020.25 1019.63 1019.21 1018.28 1017.55 1017.00 1016.83 1016.89 1016.93 1016.74 1016.14 1015.31 1014.25 1012.69 1012.10 1011.63 1011.02 1010.25 1010.59 1010.28 1009.96 1009.67 1009.17 1008.27 1008.11 1008.91 1008.89 1009.51 1008.90 1009.17 1009.31 1009.80
1021.47 1020.58 1019.92 1018.73 1017.17 1017.19 1016.92 1017.29 1017.40 1017.48 1017.22 1016.49 1015.35 1014.78 1014.25 1013.45 1012.88 1012.40 1011.50 1011.07 1010.66 1010.17 1009.53 1009.55 1009.19 1009.14 1009.27 1009.54 1009.53 1008.92 1009.19 1009.69
1022.27 1021.54 1020.68 1018.23 1017.49 1017.21 1017.50 1018.06 1018.09 1018.05 1017.74 1017.18 1016.58 1016.38 1015.31 1014.66 1014.06 1013.61 1012.57 1011.85 1011.27 1010.88 1010.81 1010.08 1009.31 1009.04 1009.45 1009.24 1008.61 1008.96 1009.31 1009.01
1022.70 1022.18 1020.61 1019.07 1017.94 1017.55 1017.43 1019.03 1018.98 1018.64 1018.34 1017.85 1016.76 1015.42 1015.86 1015.73 1015.25 1014.55 1013.48 1012.54 1011.63 1010.52 1010.33 1010.00 1009.86 1009.10 1009.35 1009.39 1009.27 1009.05 1009.14 1009.39
1023.21 1023.08 1021.84 1019.74 1018.97 1018.30 1017.89 1019.40 1019.74 1019.35 1018.99 1018.75 1017.75 1017.23 1017.11 1016.57 1015.90 1015.27 1014.63 1014.20 1013.67 1012.57 1011.80 1011.13 1011.38 1010.84 1010.34 1009.41 1009.10 1009.26 1008.93 1008.89
1023.10 1022.95 1021.81 1021.04 1019.77 1018.63 1019.61 1020.87 1020.38 1020.07 1019.84 1019.46 1019.24 1018.65 1017.68 1016.87 1016.37 1015.78 1015.37 1014.91 1014.58 1013.54 1012.89 1011.93 1011.11 1010.62 1010.30 1010.30 1010.31 1009.47 1008.20 1007.52
1023.85 1023.20 1022.61 1021.70 1020.49 1020.76 1021.61 1021.04 1020.83 1020.61 1020.25 1019.67 1019.42 1018.51 1017.33 1016.89 1016.41 1016.04 1015.34 1014.83 1014.75 1013.87 1013.17 1013.12 1012.51 1011.29 1010.43 1010.34 1010.15 1009.71 1008.42 1008.70
1024.39 1023.18 1022.71 1022.35 1022.28 1022.11 1021.97 1021.76 1021.16 1020.75 1020.26 1019.61 1019.11 1018.62 1017.85 1016.75 1016.31 1015.99 1015.59 1015.09 1014.85 1013.95 1013.11 1012.79 1012.32 1011.95 1012.36 1011.21 1010.45 1009.73 1009.65 1009.61
1024.49 1023.23 1022.97 1022.73 1022.52 1022.32 1022.09 1021.73 1021.17 1020.53 1020.13 1019.48 1018.77 1018.18 1017.63 1017.08 1016.16 1015.60 1015.19 1014.70 1014.19 1014.21 1013.71 1012.68 1013.53 1012.44 1012.31 1010.77 1010.66 1011.04 1010.19 1009.06
1024.23 1023.33 1022.81 1022.22 1022.27 1022.16 1021.88 1021.49 1020.81 1020.08 1019.57 1018.95 1018.44 1017.61 1017.22 1016.80 1016.23 1015.35 1014.96 1014.60 1014.47 1014.41 1014.51 1014.38 1013.67 1013.09 1012.86 1011.94 1011.05 1010.48 1008.92 1007.66
1023.23 1022.83 1022.87 1022.53 1022.14 1021.77 1021.39 1021.06 1020.60 1019.99 1019.25 1018.49 1017.83 1017.11 1016.76 1016.37 1015.93 1015.25 1014.77 1014.63 1014.28 1014.23 1014.16 1014.54 1014.56 1013.83 1013.31 1012.43 1012.01 1011.15 1008.58 1008.17
1021.82 1021.72 1021.93 1021.59 1021.41 1021.10 1020.93 1020.38 1019.99 1019.55 1018.81 1018.08 1017.28 1016.58 1016.19 1015.75 1015.30 1014.99 1014.66 1014.47 1014.17 1013.90 1013.94 1014.10 1014.31 1014.51 1014.06 1013.59 1012.77 1011.09 1010.23 1009.04
Wind_Speed
4 7 5 4 2 6 5 1 5 4 9 10 2 8 10 13 15 19 16 17 20 9 13 19 20 22 22 21 19 18 18 14
7 8 11 9 5 5 4 3 3 5 4 6 12 15 6 7 13 12 12 18 18 17 13 9 17 15 16 18 21 19 17 15
5 6 3 9 10 7 1 4 5 2 6 3 6 5 10 9 17 18 17 14 16 12 9 11 10 18 19 17 19 17 17 16
3 6 3 4 6 5 5 8 2 4 5 5 6 8 12 18 8 6 12 14 9 16 20 18 13 11 19 19 18 18 17 16
13 8 9 8 10 5 3 3 2 4 6 12 15 14 12 16 11 6 6 7 10 12 4 3 9 10 10 19 20 19 18 17
5 4 4 7 12 8 5 2 5 3 14 13 15 13 13 14 20 3 14 5 2 6 7 3 6 3 8 15 18 18 18 18
3 6 8 10 13 12 6 5 2 7 7 10 10 8 7 8 19 23 15 13 9 8 12 9 2 4 5 7 15 18 19 18
6 7 8 9 11 11 11 6 5 6 5 12 8 11 12 11 12 14 11 13 11 13 12 9 7 5 4 6 3 14 18 20
2 4 6 8 5 4 11 5 3 3 3 11 11 13 15 15 11 9 7 7 8 11 12 10 6 3 2 5 5 1 9 16
4 5 3 8 6 6 3 12 8 3 8 9 10 5 14 17 10 10 10 8 7 5 7 12 9 8 6 5 4 4 5 12
4 4 7 10 7 6 6 6 6 4 9 12 15 4 10 13 12 13 10 10 10 11 10 10 12 14 13 4 1 3 5 7
3 4 5 3 8 12 2 4 7 8 8 11 14 4 2 7 7 9 10 5 6 8 8 7 6 9 9 7 6 1 2 6
4 5 6 8 14 8 3 3 8 8 9 7 5 6 12 7 5 4 6 5 4 4 6 8 12 11 8 7 6 8 7 8
3 2 6 11 4 3 6 4 4 5 9 11 6 15 15 6 6 3 6 7 4 3 4 4 7 12 13 10 10 6 9 7
5 2 2 5 2 5 5 6 6 9 12 14 13 11 11 14 4 5 3 6 4 3 6 8 8 8 11 9 12 13 8 9
5 1 1 5 3 3 8 11 12 12 13 14 14 13 11 7 11 5 5 5 7 4 4 8 8 7 11 12 13 10 10 10
5 9 9 6 4 6 11 12 14 12 13 12 13 12 9 8 8 8 5 5 4 3 4 6 9 10 10 11 14 15 11 10
8 7 4 7 8 11 9 11 11 13 13 12 11 13 10 10 9 7 5 7 3 2 3 3 5 7 7 12 12 14 13 7
6 7 8 8 7 7 9 11 11 13 12 13 12 12 12 11 11 10 5 2 2 1 2 2 4 3 5 9 10 9 8 8
Wind_Direction
24 347 358 293 86 186 116 72 80 261 311 314 69 279 247 179 172 182 176 192 181 154 175 181 187 186 185 183 183 183 189 193
316 33 23 89 288 7 17 112 171 297 323 247 3 347 306 183 215 181 172 163 167 165 166 165 179 188 199 189 184 182 189 194
34 57 354 356 13 359 95 126 145 151 265 78 88 26 360 273 216 186 196 188 170 152 165 164 164 179 186 195 192 185 188 194
245 267 248 127 80 50 53 315 325 132 276 8 29 1 13 19 256 191 189 189 216 181 181 179 178 171 182 187 194 192 189 192
342 10 20 37 7 30 255 350 324 119 267 9 26 27 25 10 347 215 158 183 219 232 187 225 179 165 188 189 193 192 189 193
181 231 268 322 335 348 110 14 325 268 328 351 15 9 2 15 14 313 193 193 306 323 301 344 344 255 212 194 190 194 192 196
353 10 352 340 342 335 326 237 178 293 317 325 352 345 353 23 47 41 47 51 28 345 300 284 260 211 266 247 194 190 193 196
360 35 11 322 309 308 304 348 310 333 334 355 352 21 16 20 46 84 60 48 16 12 354 314 225 214 112 336 159 194 196 203
267 65 8 307 268 293 294 338 89 90 294 357 5 18 26 11 17 13 48 85 53 8 5 347 45 71 331 239 210 207 220 208
206 73 215 243 312 271 302 63 58 38 9 2 341 337 39 21 18 5 1 359 64 60 8 355 6 7 324 273 224 187 231 211
163 180 276 299 286 243 171 90 39 7 1 354 341 347 57 20 16 359 348 348 360 16 27 354 356 352 336 294 234 21 47 11
136 150 242 224 332 323 315 140 9 8 4 357 337 33 288 350 358 357 345 6 353 348 8 1 353 316 334 349 4 80 98 11
207 209 272 357 311 301 174 258 350 358 348 355 339 288 300 317 338 333 11 2 337 350 14 354 337 333 348 357 1 329 316 27
329 245 245 3 342 57 350 295 321 334 326 306 304 307 308 305 317 354 350 7 356 360 8 3 353 338 342 342 328 343 350 309
211 292 23 326 8 331 347 301 296 308 310 303 305 292 302 312 295 311 355 333 337 2 5 354 3 357 304 327 334 330 316 272
360 169 297 283 295 331 309 306 302 298 295 289 285 286 290 292 310 312 328 333 332 345 14 7 339 346 320 325 324 308 292 292
253 285 304 234 299 300 302 311 301 301 299 295 288 284 287 294 294 295 309 309 341 7 2 2 349 331 315 321 319 308 318 322
215 200 207 265 280 295 288 303 311 301 295 289 278 278 275 284 281 279 288 296 297 317 23 0 329 321 314 323 316 308 316 318
209 192 208 239 261 265 285 313 302 312 300 299 283 274 272 267 264 270 260 287 303 348 323 318 291 225 291 295 297 296 287 290